LKTB Weather Reports


time (UTC)temp
C
wind
direction
speed
KPH
gust
KPH
rain 1hr
cm
rain 24hr
cm
rain mn
cm
humidity
%
barometer
mb
20260503053216 13 120 11.3 0.0 0.00 0.00 0.00 47 1019.0
20260503052048 12 100 8.0 0.0 0.00 0.00 0.00 54
20260503050224 12 100 11.3 0.0 0.00 0.00 0.00 50 1019.0
20260503043216 12 0 1.6 0.0 0.00 0.00 0.00 50 1019.0
20260503042105 12 60 14.5 0.0 0.00 0.00 0.00 46
20260503040225 12 0 3.2 0.0 0.00 0.00 0.00 46 1019.0
20260503033224 11 0 3.2 0.0 0.00 0.00 0.00 50 1019.0
20260503032103 8 40 11.3 0.0 0.00 0.00 0.00 57
20260503030232 10 340 4.8 0.0 0.00 0.00 0.00 53 1019.0
20260503023217 8 20 4.8 0.0 0.00 0.00 0.00 57 1019.0
20260503022102 8 50 8.0 0.0 0.00 0.00 0.00 57
20260503020224 8 0 3.2 0.0 0.00 0.00 0.00 57 1019.0
20260503013217 7 0 1.6 0.0 0.00 0.00 0.00 65 1019.0
20260503012104 8 60 3.2 0.0 0.00 0.00 0.00 61
20260503010225 8 0 3.2 0.0 0.00 0.00 0.00 61 1018.0
20260503003224 10 0 3.2 0.0 0.00 0.00 0.00 61 1019.0
20260503002105 10 40 3.2 0.0 0.00 0.00 0.00 57
20260503000226 10 320 3.2 0.0 0.00 0.00 0.00 57 1019.0
20260502233217 11 0 1.6 0.0 0.00 0.00 0.00 53 1019.0
20260502232046 10 10 8.0 0.0 0.00 0.00 0.00 61
20260502230230 10 0 1.6 0.0 0.00 0.00 0.00 61 1019.0
20260502223216 8 290 4.8 0.0 0.00 0.00 0.00 61 1019.0
20260502222104 11 40 8.0 0.0 0.00 0.00 0.00 50
20260502220225 11 0 3.2 0.0 0.00 0.00 0.00 50 1019.0
20260502213216 13 340 4.8 0.0 0.00 0.00 0.00 44 1019.0
20260502212104 13 350 3.2 0.0 0.00 0.00 0.00 44
20260502210225 13 310 4.8 0.0 0.00 0.00 0.00 44 1019.0
20260502203217 17 0 4.8 0.0 0.00 0.00 0.00 36 1019.0
20260502202105 17 40 11.3 0.0 0.00 0.00 0.00 34
20260502200231 17 60 9.7 0.0 0.00 0.00 0.00 34 1019.0
20260502193216 17 60 9.7 0.0 0.00 0.00 0.00 36 1019.0
20260502192105 18 50 8.0 0.0 0.00 0.00 0.00 32
20260502190232 18 60 4.8 0.0 0.00 0.00 0.00 34 1019.0
20260502183223 20 90 4.8 0.0 0.00 0.00 0.00 30 1019.0
20260502182104 20 110 8.0 0.0 0.00 0.00 0.00 30
20260502180225 20 100 9.7 0.0 0.00 0.00 0.00 30 1019.0
20260502170224 21 100 9.7 0.0 0.00 0.00 0.00 28 1019.0
20260502163223 22 120 9.7 0.0 0.00 0.00 0.00 26 1020.0
20260502162104 22 100 11.3 0.0 0.00 0.00 0.00 21
20260502160232 22 0 3.2 0.0 0.00 0.00 0.00 21 1020.0
20260502152032 22 100 11.3 0.0 0.00 0.00 0.00 21
20260502150225 22 80 11.3 0.0 0.00 0.00 0.00 21 1020.0
20260502130225 22 0 8.0 0.0 0.00 0.00 0.00 25 1022.0
20260502123224 22 0 8.0 0.0 0.00 0.00 0.00 26 1022.0
20260502122109 22 110 11.3 0.0 0.00 0.00 0.00 26
20260502120232 22 100 12.9 0.0 0.00 0.00 0.00 28 1022.0
20260502113224 22 0 4.8 0.0 0.00 0.00 0.00 26 1023.0
20260502112106 21 80 11.3 0.0 0.00 0.00 0.00 28
20260502110232 22 0 9.7 0.0 0.00 0.00 0.00 30 1023.0
20260502103224 21 0 4.8 0.0 0.00 0.00 0.00 28 1024.0
20260502102107 21 60 8.0 0.0 0.00 0.00 0.00 28
20260502100227 21 320 8.0 0.0 0.00 0.00 0.00 28 1024.0
20260502090227 20 0 4.8 0.0 0.00 0.00 0.00 30 1025.0
20260502070234 15 0 3.2 0.0 0.00 0.00 0.00 47 1025.0
20260502063224 12 0 0.0 0.0 0.00 0.00 0.00 54 1025.0
20260502062107 11 290 3.2 0.0 0.00 0.00 0.00 62
20260502060227 11 0 3.2 0.0 0.00 0.00 0.00 62 1025.0